contact:dominique.lefevre@mio.osupytheas.fr, maurice.libes@osupytheas.fr, didier.mallarino@osupytheas.fr
Project:EMSO http://www.emso-fr.org/EMSO-France
Depth: 2436.0 m
Title:EMSO Ligure Ouest : Data MII capteur MICROCAT
DateTime_Computer,Latitude,Longitude,Temperature,Conductivity,Pressure,DateTime_Instrument
DateTime_Computer,Latitude,Longitude,degC,S m-1,dbar,DateTime_Instrument
2023-11-07T00:01:17Z,42.805,6.029,13.3028,4.60100,2470.857,2023-11-07T02:03:43Z
2023-11-07T00:04:20Z,42.805,6.029,13.3028,4.60096,2470.833,2023-11-07T02:06:47Z
2023-11-07T00:07:23Z,42.805,6.029,13.3029,4.60098,2470.8,2023-11-07T02:09:50Z
2023-11-07T00:10:26Z,42.805,6.029,13.3029,4.60095,2470.833,2023-11-07T02:12:53Z
2023-11-07T00:13:29Z,42.805,6.029,13.3031,4.60097,2470.857,2023-11-07T02:15:56Z
2023-11-07T00:16:32Z,42.805,6.029,13.3032,4.60096,2470.833,2023-11-07T02:18:59Z
2023-11-07T00:19:35Z,42.805,6.029,13.3031,4.60094,2470.81,2023-11-07T02:22:02Z
2023-11-07T00:22:38Z,42.805,6.029,13.3030,4.60096,2470.847,2023-11-07T02:25:05Z
2023-11-07T00:25:42Z,42.805,6.029,13.3029,4.60095,2470.833,2023-11-07T02:28:08Z
2023-11-07T00:28:45Z,42.805,6.029,13.3029,4.60094,2470.871,2023-11-07T02:31:11Z
2023-11-07T00:31:48Z,42.805,6.029,13.3029,4.60094,2470.833,2023-11-07T02:34:14Z
2023-11-07T00:34:51Z,42.805,6.029,13.3026,4.60094,2470.833,2023-11-07T02:37:17Z
2023-11-07T00:37:54Z,42.805,6.029,13.3028,4.60095,2470.833,2023-11-07T02:40:20Z
2023-11-07T00:40:57Z,42.805,6.029,13.3031,4.60095,2470.847,2023-11-07T02:43:23Z
2023-11-07T00:44:00Z,42.805,6.029,13.3031,4.60097,2470.857,2023-11-07T02:46:27Z
2023-11-07T00:47:03Z,42.805,6.029,13.3033,4.60096,2470.857,2023-11-07T02:49:30Z
2023-11-07T00:50:06Z,42.805,6.029,13.3029,4.60094,2470.833,2023-11-07T02:52:33Z
2023-11-07T00:53:09Z,42.805,6.029,13.3026,4.60094,2470.81,2023-11-07T02:55:36Z
2023-11-07T00:56:12Z,42.805,6.029,13.3027,4.60094,2470.833,2023-11-07T02:58:39Z
2023-11-07T00:59:15Z,42.805,6.029,13.3029,4.60096,2470.88,2023-11-07T03:01:42Z
2023-11-07T01:02:18Z,42.805,6.029,13.3023,4.60095,2470.857,2023-11-07T03:04:45Z
2023-11-07T01:05:22Z,42.805,6.029,13.3028,4.60096,2470.833,2023-11-07T03:07:48Z
2023-11-07T01:08:25Z,42.805,6.029,13.3025,4.60092,2470.871,2023-11-07T03:10:51Z
2023-11-07T01:11:28Z,42.805,6.029,13.3024,4.60093,2470.833,2023-11-07T03:13:54Z
2023-11-07T01:14:31Z,42.805,6.029,13.3024,4.60093,2470.833,2023-11-07T03:16:57Z
2023-11-07T01:17:34Z,42.805,6.029,13.3028,4.60094,2470.82,2023-11-07T03:20:00Z
2023-11-07T01:20:37Z,42.805,6.029,13.3028,4.60098,2470.833,2023-11-07T03:23:03Z
2023-11-07T01:23:40Z,42.805,6.029,13.3029,4.60094,2470.857,2023-11-07T03:26:06Z
2023-11-07T01:26:43Z,42.805,6.029,13.3029,4.60095,2470.857,2023-11-07T03:29:10Z
2023-11-07T01:29:46Z,42.805,6.029,13.3029,4.60096,2470.857,2023-11-07T03:32:13Z
2023-11-07T01:32:49Z,42.805,6.029,13.3032,4.60102,2470.857,2023-11-07T03:35:16Z
2023-11-07T01:35:52Z,42.805,6.029,13.3026,4.60094,2470.857,2023-11-07T03:38:19Z
2023-11-07T01:38:55Z,42.805,6.029,13.3030,4.60093,2470.833,2023-11-07T03:41:22Z
2023-11-07T01:41:58Z,42.805,6.029,13.3031,4.60098,2470.857,2023-11-07T03:44:25Z
2023-11-07T01:45:02Z,42.805,6.029,13.3026,4.60094,2470.88,2023-11-07T03:47:28Z
2023-11-07T01:48:05Z,42.805,6.029,13.3026,4.60094,2470.833,2023-11-07T03:50:31Z
2023-11-07T01:51:08Z,42.805,6.029,13.3029,4.60095,2470.833,2023-11-07T03:53:34Z
2023-11-07T01:54:11Z,42.805,6.029,13.3028,4.60093,2470.833,2023-11-07T03:56:37Z
2023-11-07T01:57:14Z,42.805,6.029,13.3030,4.60094,2470.857,2023-11-07T03:59:40Z
2023-11-07T02:00:17Z,42.805,6.029,13.3029,4.60098,2470.847,2023-11-07T04:02:43Z
2023-11-07T02:03:20Z,42.805,6.029,13.3025,4.60094,2470.833,2023-11-07T04:05:46Z
2023-11-07T02:06:23Z,42.805,6.029,13.3027,4.60094,2470.847,2023-11-07T04:08:50Z
2023-11-07T02:09:26Z,42.805,6.029,13.3023,4.60100,2470.857,2023-11-07T04:11:53Z
2023-11-07T02:12:29Z,42.805,6.029,13.3027,4.60092,2470.857,2023-11-07T04:14:56Z
2023-11-07T02:15:32Z,42.805,6.029,13.3025,4.60092,2470.857,2023-11-07T04:17:59Z
2023-11-07T02:18:35Z,42.805,6.029,13.3033,4.60094,2470.833,2023-11-07T04:21:02Z
2023-11-07T02:21:38Z,42.805,6.029,13.3032,4.60094,2470.88,2023-11-07T04:24:05Z
2023-11-07T02:24:41Z,42.805,6.029,13.3026,4.60093,2470.88,2023-11-07T04:27:08Z
2023-11-07T02:27:45Z,42.805,6.029,13.3027,4.60094,2470.871,2023-11-07T04:30:11Z
2023-11-07T02:30:48Z,42.805,6.029,13.3026,4.60095,2470.894,2023-11-07T04:33:14Z
2023-11-07T02:33:51Z,42.805,6.029,13.3024,4.60097,2470.857,2023-11-07T04:36:17Z
2023-11-07T02:36:54Z,42.805,6.029,13.3026,4.60095,2470.857,2023-11-07T04:39:20Z
2023-11-07T02:39:57Z,42.805,6.029,13.3032,4.60097,2470.871,2023-11-07T04:42:23Z
2023-11-07T02:43:00Z,42.805,6.029,13.3030,4.60095,2470.88,2023-11-07T04:45:26Z
2023-11-07T02:46:03Z,42.805,6.029,13.3030,4.60097,2470.857,2023-11-07T04:48:30Z
2023-11-07T02:49:06Z,42.805,6.029,13.3029,4.60104,2470.904,2023-11-07T04:51:33Z
2023-11-07T02:52:09Z,42.805,6.029,13.3028,4.60097,2470.857,2023-11-07T04:54:36Z
2023-11-07T02:55:12Z,42.805,6.029,13.3028,4.60097,2470.88,2023-11-07T04:57:39Z
2023-11-07T02:58:15Z,42.805,6.029,13.3029,4.60102,2470.833,2023-11-07T05:00:42Z
2023-11-07T03:01:18Z,42.805,6.029,13.3029,4.60097,2470.88,2023-11-07T05:03:45Z
2023-11-07T03:04:21Z,42.805,6.029,13.3031,4.60097,2470.857,2023-11-07T05:06:48Z
2023-11-07T03:07:25Z,42.805,6.029,13.3027,4.60095,2470.871,2023-11-07T05:09:51Z
2023-11-07T03:10:28Z,42.805,6.029,13.3033,4.60097,2470.904,2023-11-07T05:12:54Z
2023-11-07T03:13:31Z,42.805,6.029,13.3031,4.60094,2470.857,2023-11-07T05:15:57Z
2023-11-07T03:16:34Z,42.805,6.029,13.3031,4.60097,2470.871,2023-11-07T05:19:00Z
2023-11-07T03:19:37Z,42.805,6.029,13.3029,4.60095,2470.847,2023-11-07T05:22:03Z
2023-11-07T03:22:40Z,42.805,6.029,13.3031,4.60096,2470.894,2023-11-07T05:25:06Z
2023-11-07T03:25:43Z,42.805,6.029,13.3027,4.60094,2470.88,2023-11-07T05:28:09Z
2023-11-07T03:28:46Z,42.805,6.029,13.3029,4.60096,2470.894,2023-11-07T05:31:13Z
2023-11-07T03:31:49Z,42.805,6.029,13.3026,4.60094,2470.871,2023-11-07T05:34:16Z
2023-11-07T03:34:52Z,42.805,6.029,13.3029,4.60096,2470.833,2023-11-07T05:37:19Z
2023-11-07T03:37:55Z,42.805,6.029,13.3025,4.60097,2470.904,2023-11-07T05:40:22Z
2023-11-07T03:40:58Z,42.805,6.029,13.3026,4.60096,2470.857,2023-11-07T05:43:25Z
2023-11-07T03:44:01Z,42.805,6.029,13.3027,4.60096,2470.894,2023-11-07T05:46:28Z
2023-11-07T03:47:05Z,42.805,6.029,13.3030,4.60095,2470.847,2023-11-07T05:49:31Z
2023-11-07T03:50:08Z,42.805,6.029,13.3029,4.60095,2470.857,2023-11-07T05:52:34Z
2023-11-07T03:53:11Z,42.805,6.029,13.3029,4.60094,2470.833,2023-11-07T05:55:37Z
2023-11-07T03:56:14Z,42.805,6.029,13.3026,4.60096,2470.833,2023-11-07T05:58:40Z
2023-11-07T03:59:17Z,42.805,6.029,13.3027,4.60094,2470.847,2023-11-07T06:01:43Z
2023-11-07T04:02:20Z,42.805,6.029,13.3026,4.60097,2470.894,2023-11-07T06:04:46Z
2023-11-07T04:05:23Z,42.805,6.029,13.3026,4.60093,2470.857,2023-11-07T06:07:49Z
2023-11-07T04:08:26Z,42.805,6.029,13.3032,4.60095,2470.88,2023-11-07T06:10:53Z
2023-11-07T04:11:29Z,42.805,6.029,13.3029,4.60101,2470.88,2023-11-07T06:13:56Z
2023-11-07T04:14:32Z,42.805,6.029,13.3029,4.60095,2470.871,2023-11-07T06:16:59Z
2023-11-07T04:17:35Z,42.805,6.029,13.3029,4.60094,2470.871,2023-11-07T06:20:02Z
2023-11-07T04:20:38Z,42.805,6.029,13.3029,4.60094,2470.88,2023-11-07T06:23:05Z
2023-11-07T04:23:41Z,42.805,6.029,13.3030,4.60096,2470.871,2023-11-07T06:26:08Z
2023-11-07T04:26:44Z,42.805,6.029,13.3029,4.60093,2470.88,2023-11-07T06:29:11Z
2023-11-07T04:29:48Z,42.805,6.029,13.3026,4.60094,2470.904,2023-11-07T06:32:14Z
2023-11-07T04:32:51Z,42.805,6.029,13.3026,4.60095,2470.88,2023-11-07T06:35:17Z
2023-11-07T04:35:54Z,42.805,6.029,13.3027,4.60096,2470.894,2023-11-07T06:38:20Z
2023-11-07T04:38:57Z,42.805,6.029,13.3030,4.60094,2470.88,2023-11-07T06:41:23Z
2023-11-07T04:42:00Z,42.805,6.029,13.3026,4.60092,2470.894,2023-11-07T06:44:26Z
2023-11-07T04:45:03Z,42.805,6.029,13.3026,4.60110,2470.857,2023-11-07T06:47:29Z
2023-11-07T04:48:06Z,42.805,6.029,13.3024,4.60095,2470.871,2023-11-07T06:50:33Z
2023-11-07T04:51:09Z,42.805,6.029,13.3025,4.60095,2470.857,2023-11-07T06:53:36Z
2023-11-07T04:54:12Z,42.805,6.029,13.3031,4.60094,2470.871,2023-11-07T06:56:39Z
2023-11-07T04:57:15Z,42.805,6.029,13.3029,4.60097,2470.88,2023-11-07T06:59:42Z
2023-11-07T05:00:18Z,42.805,6.029,13.3026,4.60095,2470.88,2023-11-07T07:02:45Z
2023-11-07T05:03:21Z,42.805,6.029,13.3027,4.60096,2470.857,2023-11-07T07:05:48Z
2023-11-07T05:06:24Z,42.805,6.029,13.3026,4.60094,2470.866,2023-11-07T07:08:51Z
2023-11-07T05:09:28Z,42.805,6.029,13.3029,4.60094,2470.904,2023-11-07T07:11:54Z
2023-11-07T05:12:31Z,42.805,6.029,13.3029,4.60094,2470.857,2023-11-07T07:14:57Z
2023-11-07T05:15:34Z,42.805,6.029,13.3026,4.60094,2470.857,2023-11-07T07:18:00Z
2023-11-07T05:18:37Z,42.805,6.029,13.3029,4.60111,2470.857,2023-11-07T07:21:03Z
2023-11-07T05:21:40Z,42.805,6.029,13.3024,4.60094,2470.88,2023-11-07T07:24:06Z
2023-11-07T05:24:43Z,42.805,6.029,13.3027,4.60093,2470.833,2023-11-07T07:27:09Z
2023-11-07T05:27:46Z,42.805,6.029,13.3034,4.60093,2470.857,2023-11-07T07:30:13Z
2023-11-07T05:30:49Z,42.805,6.029,13.3026,4.60094,2470.857,2023-11-07T07:33:16Z
2023-11-07T05:33:52Z,42.805,6.029,13.3029,4.60095,2470.857,2023-11-07T07:36:19Z
2023-11-07T05:36:55Z,42.805,6.029,13.3029,4.60094,2470.894,2023-11-07T07:39:22Z
2023-11-07T05:39:58Z,42.805,6.029,13.3024,4.60094,2470.833,2023-11-07T07:42:25Z
2023-11-07T05:43:01Z,42.805,6.029,13.3029,4.60093,2470.857,2023-11-07T07:45:28Z
2023-11-07T05:46:05Z,42.805,6.029,13.3030,4.60095,2470.871,2023-11-07T07:48:31Z
2023-11-07T05:49:08Z,42.805,6.029,13.3026,4.60099,2470.871,2023-11-07T07:51:34Z
2023-11-07T05:52:11Z,42.805,6.029,13.3026,4.60095,2470.857,2023-11-07T07:54:37Z
2023-11-07T05:55:14Z,42.805,6.029,13.3021,4.60094,2470.88,2023-11-07T07:57:40Z
2023-11-07T05:58:17Z,42.805,6.029,13.3027,4.60093,2470.857,2023-11-07T08:00:43Z
2023-11-07T06:01:20Z,42.805,6.029,13.3026,4.60093,2470.894,2023-11-07T08:03:46Z
2023-11-07T06:04:23Z,42.805,6.029,13.3032,4.60094,2470.857,2023-11-07T08:06:49Z
2023-11-07T06:07:26Z,42.805,6.029,13.3026,4.60095,2470.81,2023-11-07T08:09:53Z
2023-11-07T06:10:29Z,42.805,6.029,13.3027,4.60094,2470.857,2023-11-07T08:12:56Z
2023-11-07T06:13:32Z,42.805,6.029,13.3029,4.60097,2470.871,2023-11-07T08:15:59Z
2023-11-07T06:16:35Z,42.805,6.029,13.3029,4.60092,2470.81,2023-11-07T08:19:02Z
2023-11-07T06:19:38Z,42.805,6.029,13.3024,4.60094,2470.857,2023-11-07T08:22:05Z
2023-11-07T06:22:41Z,42.805,6.029,13.3026,4.60097,2470.81,2023-11-07T08:25:08Z
2023-11-07T06:25:44Z,42.805,6.029,13.3023,4.60102,2470.857,2023-11-07T08:28:11Z
2023-11-07T06:28:48Z,42.805,6.029,13.3032,4.60099,2470.833,2023-11-07T08:31:14Z
2023-11-07T06:31:51Z,42.805,6.029,13.3026,4.60098,2470.81,2023-11-07T08:34:17Z
2023-11-07T06:34:54Z,42.805,6.029,13.3026,4.60099,2470.833,2023-11-07T08:37:20Z
2023-11-07T06:37:57Z,42.805,6.029,13.3034,4.60101,2470.857,2023-11-07T08:40:23Z
2023-11-07T06:41:00Z,42.805,6.029,13.3024,4.60096,2470.833,2023-11-07T08:43:26Z
2023-11-07T06:44:03Z,42.805,6.029,13.3028,4.60094,2470.857,2023-11-07T08:46:29Z
2023-11-07T06:47:06Z,42.805,6.029,13.3029,4.60096,2470.857,2023-11-07T08:49:33Z
2023-11-07T06:50:09Z,42.805,6.029,13.3029,4.60104,2470.833,2023-11-07T08:52:36Z
2023-11-07T06:53:12Z,42.805,6.029,13.3026,4.60097,2470.833,2023-11-07T08:55:39Z
2023-11-07T06:56:15Z,42.805,6.029,13.3026,4.60094,2470.833,2023-11-07T08:58:42Z
2023-11-07T06:59:18Z,42.805,6.029,13.3028,4.60094,2470.857,2023-11-07T09:01:45Z
2023-11-07T07:02:21Z,42.805,6.029,13.3028,4.60098,2470.857,2023-11-07T09:04:48Z
2023-11-07T07:05:24Z,42.805,6.029,13.3029,4.60098,2470.833,2023-11-07T09:07:51Z
2023-11-07T07:08:28Z,42.805,6.029,13.3026,4.60099,2470.833,2023-11-07T09:10:54Z
2023-11-07T07:11:31Z,42.805,6.029,13.3023,4.60097,2470.81,2023-11-07T09:13:57Z
2023-11-07T07:14:34Z,42.805,6.029,13.3029,4.60102,2470.857,2023-11-07T09:17:00Z
2023-11-07T07:17:37Z,42.805,6.029,13.3022,4.60104,2470.833,2023-11-07T09:20:03Z
2023-11-07T07:20:40Z,42.805,6.029,13.3026,4.60098,2470.88,2023-11-07T09:23:06Z
2023-11-07T07:23:43Z,42.805,6.029,13.3027,4.60099,2470.824,2023-11-07T09:26:09Z
2023-11-07T07:26:46Z,42.805,6.029,13.3024,4.60122,2470.857,2023-11-07T09:29:13Z
2023-11-07T07:29:49Z,42.805,6.029,13.3024,4.60110,2470.833,2023-11-07T09:32:16Z
2023-11-07T07:32:52Z,42.805,6.029,13.3026,4.60102,2470.833,2023-11-07T09:35:19Z
2023-11-07T07:35:55Z,42.805,6.029,13.3029,4.60101,2470.871,2023-11-07T09:38:22Z
2023-11-07T07:38:58Z,42.805,6.029,13.3026,4.60104,2470.847,2023-11-07T09:41:25Z
2023-11-07T07:42:01Z,42.805,6.029,13.3027,4.60101,2470.833,2023-11-07T09:44:28Z
2023-11-07T07:45:04Z,42.805,6.029,13.3029,4.60100,2470.833,2023-11-07T09:47:31Z
2023-11-07T07:48:07Z,42.805,6.029,13.3027,4.60102,2470.82,2023-11-07T09:50:34Z
2023-11-07T07:51:11Z,42.805,6.029,13.3024,4.60104,2470.857,2023-11-07T09:53:37Z
2023-11-07T07:54:14Z,42.805,6.029,13.3029,4.60100,2470.857,2023-11-07T09:56:40Z
2023-11-07T07:57:17Z,42.805,6.029,13.3026,4.60110,2470.857,2023-11-07T09:59:43Z
2023-11-07T08:00:20Z,42.805,6.029,13.3026,4.60111,2470.833,2023-11-07T10:02:46Z
2023-11-07T08:03:23Z,42.805,6.029,13.3025,4.60104,2470.833,2023-11-07T10:05:49Z
2023-11-07T08:06:26Z,42.805,6.029,13.3026,4.60104,2470.833,2023-11-07T10:08:52Z
2023-11-07T08:09:29Z,42.805,6.029,13.3029,4.60104,2470.847,2023-11-07T10:11:56Z
2023-11-07T08:12:32Z,42.805,6.029,13.3029,4.60108,2470.857,2023-11-07T10:14:59Z
2023-11-07T08:15:35Z,42.805,6.029,13.3028,4.60101,2470.833,2023-11-07T10:18:02Z
2023-11-07T08:18:38Z,42.805,6.029,13.3028,4.60098,2470.857,2023-11-07T10:21:05Z
2023-11-07T08:21:41Z,42.805,6.029,13.3027,4.60099,2470.833,2023-11-07T10:24:08Z
2023-11-07T08:24:44Z,42.805,6.029,13.3026,4.60099,2470.833,2023-11-07T10:27:11Z
2023-11-07T08:27:47Z,42.805,6.029,13.3028,4.60099,2470.833,2023-11-07T10:30:14Z
2023-11-07T08:30:51Z,42.805,6.029,13.3027,4.60101,2470.857,2023-11-07T10:33:17Z
2023-11-07T08:33:54Z,42.805,6.029,13.3029,4.60102,2470.857,2023-11-07T10:36:20Z
2023-11-07T08:36:57Z,42.805,6.029,13.3026,4.60099,2470.857,2023-11-07T10:39:23Z
2023-11-07T08:40:00Z,42.805,6.029,13.3027,4.60098,2470.833,2023-11-07T10:42:26Z
2023-11-07T08:43:03Z,42.805,6.029,13.3028,4.60095,2470.857,2023-11-07T10:45:29Z
2023-11-07T08:46:06Z,42.805,6.029,13.3026,4.60095,2470.857,2023-11-07T10:48:32Z
2023-11-07T08:49:09Z,42.805,6.029,13.3024,4.60097,2470.833,2023-11-07T10:51:36Z
2023-11-07T08:52:12Z,42.805,6.029,13.3031,4.60097,2470.843,2023-11-07T10:54:39Z
2023-11-07T08:55:15Z,42.805,6.029,13.3029,4.60097,2470.871,2023-11-07T10:57:42Z
2023-11-07T08:58:18Z,42.805,6.029,13.3026,4.60101,2470.857,2023-11-07T11:00:45Z
2023-11-07T09:01:21Z,42.805,6.029,13.3030,4.60105,2470.857,2023-11-07T11:03:48Z
2023-11-07T09:04:24Z,42.805,6.029,13.3025,4.60097,2470.833,2023-11-07T11:06:51Z
2023-11-07T09:07:28Z,42.805,6.029,13.3030,4.60099,2470.847,2023-11-07T11:09:54Z
2023-11-07T09:10:31Z,42.805,6.029,13.3026,4.60098,2470.857,2023-11-07T11:12:57Z
2023-11-07T09:13:34Z,42.805,6.029,13.3030,4.60102,2470.857,2023-11-07T11:16:00Z
2023-11-07T09:16:37Z,42.805,6.029,13.3028,4.60101,2470.847,2023-11-07T11:19:03Z
2023-11-07T09:19:40Z,42.805,6.029,13.3028,4.60099,2470.833,2023-11-07T11:22:06Z
2023-11-07T09:22:43Z,42.805,6.029,13.3031,4.60098,2470.857,2023-11-07T11:25:09Z
2023-11-07T09:25:46Z,42.805,6.029,13.3026,4.60101,2470.871,2023-11-07T11:28:13Z
2023-11-07T09:28:49Z,42.805,6.029,13.3027,4.60099,2470.847,2023-11-07T11:31:16Z
2023-11-07T09:31:51Z,42.805,6.029,13.3027,4.60099,2470.847,2023-11-07T11:34:18Z
2023-11-07T09:34:54Z,42.805,6.029,13.3026,4.60099,2470.847,2023-11-07T11:37:21Z
2023-11-07T09:37:57Z,42.805,6.029,13.3029,4.60097,2470.857,2023-11-07T11:40:24Z
2023-11-07T09:41:00Z,42.805,6.029,13.3026,4.60099,2470.871,2023-11-07T11:43:27Z
2023-11-07T09:44:04Z,42.805,6.029,13.3031,4.60099,2470.857,2023-11-07T11:46:30Z
2023-11-07T09:47:07Z,42.805,6.029,13.3026,4.60099,2470.833,2023-11-07T11:49:33Z
2023-11-07T09:50:10Z,42.805,6.029,13.3029,4.60102,2470.847,2023-11-07T11:52:36Z
2023-11-07T09:53:13Z,42.805,6.029,13.3029,4.60100,2470.857,2023-11-07T11:55:39Z
2023-11-07T09:56:16Z,42.805,6.029,13.3026,4.60099,2470.847,2023-11-07T11:58:42Z
2023-11-07T09:59:19Z,42.805,6.029,13.3027,4.60103,2470.857,2023-11-07T12:01:45Z
2023-11-07T10:02:22Z,42.805,6.029,13.3026,4.60102,2470.857,2023-11-07T12:04:49Z
2023-11-07T10:05:25Z,42.805,6.029,13.3028,4.60101,2470.82,2023-11-07T12:07:52Z
2023-11-07T10:08:28Z,42.805,6.029,13.3031,4.60102,2470.833,2023-11-07T12:10:55Z
2023-11-07T10:11:31Z,42.805,6.029,13.3028,4.60104,2470.857,2023-11-07T12:13:58Z
2023-11-07T10:14:34Z,42.805,6.029,13.3029,4.60102,2470.833,2023-11-07T12:17:01Z
2023-11-07T10:17:37Z,42.805,6.029,13.3028,4.60104,2470.847,2023-11-07T12:20:04Z
2023-11-07T10:20:40Z,42.805,6.029,13.3026,4.60101,2470.871,2023-11-07T12:23:07Z
2023-11-07T10:23:44Z,42.805,6.029,13.3031,4.60102,2470.871,2023-11-07T12:26:10Z
2023-11-07T10:26:47Z,42.805,6.029,13.3029,4.60107,2470.833,2023-11-07T12:29:13Z
2023-11-07T10:29:50Z,42.805,6.029,13.3029,4.60103,2470.833,2023-11-07T12:32:16Z
2023-11-07T10:32:53Z,42.805,6.029,13.3026,4.60102,2470.833,2023-11-07T12:35:19Z
2023-11-07T10:35:56Z,42.805,6.029,13.3026,4.60103,2470.857,2023-11-07T12:38:22Z
2023-11-07T10:38:59Z,42.805,6.029,13.3032,4.60103,2470.88,2023-11-07T12:41:26Z
2023-11-07T10:42:02Z,42.805,6.029,13.3031,4.60103,2470.857,2023-11-07T12:44:29Z
2023-11-07T10:45:05Z,42.805,6.029,13.3032,4.60102,2470.88,2023-11-07T12:47:32Z
2023-11-07T10:48:08Z,42.805,6.029,13.3028,4.60104,2470.857,2023-11-07T12:50:35Z
2023-11-07T10:51:11Z,42.805,6.029,13.3027,4.60101,2470.857,2023-11-07T12:53:38Z
2023-11-07T10:54:14Z,42.805,6.029,13.3028,4.60104,2470.857,2023-11-07T12:56:41Z
2023-11-07T10:57:17Z,42.805,6.029,13.3031,4.60103,2470.857,2023-11-07T12:59:44Z
2023-11-07T11:00:21Z,42.805,6.029,13.3031,4.60102,2470.8,2023-11-07T13:02:47Z
2023-11-07T11:03:24Z,42.805,6.029,13.3026,4.60102,2470.81,2023-11-07T13:05:50Z
2023-11-07T11:06:27Z,42.805,6.029,13.3026,4.60103,2470.857,2023-11-07T13:08:53Z
2023-11-07T11:09:30Z,42.805,6.029,13.3026,4.60102,2470.857,2023-11-07T13:11:56Z
2023-11-07T11:12:33Z,42.805,6.029,13.3031,4.60102,2470.857,2023-11-07T13:14:59Z
2023-11-07T11:15:36Z,42.805,6.029,13.3031,4.60102,2470.857,2023-11-07T13:18:02Z
2023-11-07T11:18:39Z,42.805,6.029,13.3026,4.60102,2470.857,2023-11-07T13:21:06Z
2023-11-07T11:21:42Z,42.805,6.029,13.3034,4.60104,2470.833,2023-11-07T13:24:09Z
2023-11-07T11:24:45Z,42.805,6.029,13.3031,4.60102,2470.857,2023-11-07T13:27:12Z
2023-11-07T11:27:48Z,42.805,6.029,13.3031,4.60102,2470.88,2023-11-07T13:30:15Z
2023-11-07T11:30:50Z,42.805,6.029,13.3031,4.60101,2470.894,2023-11-07T13:33:17Z
2023-11-07T11:33:53Z,42.805,6.029,13.3029,4.60101,2470.833,2023-11-07T13:36:20Z
2023-11-07T11:36:57Z,42.805,6.029,13.3030,4.60102,2470.857,2023-11-07T13:39:23Z
2023-11-07T11:40:00Z,42.805,6.029,13.3028,4.60102,2470.857,2023-11-07T13:42:26Z
2023-11-07T11:43:03Z,42.805,6.029,13.3028,4.60101,2470.857,2023-11-07T13:45:29Z
2023-11-07T11:46:06Z,42.805,6.029,13.3031,4.60101,2470.833,2023-11-07T13:48:32Z
2023-11-07T11:49:09Z,42.805,6.029,13.3032,4.60102,2470.88,2023-11-07T13:51:35Z
2023-11-07T11:52:12Z,42.805,6.029,13.3033,4.60102,2470.88,2023-11-07T13:54:38Z
2023-11-07T11:55:15Z,42.805,6.029,13.3026,4.60100,2470.894,2023-11-07T13:57:42Z
2023-11-07T11:58:18Z,42.805,6.029,13.3030,4.60099,2470.857,2023-11-07T14:00:45Z
2023-11-07T12:01:21Z,42.805,6.029,13.3026,4.60102,2470.904,2023-11-07T14:03:48Z
2023-11-07T12:04:24Z,42.805,6.029,13.3031,4.60102,2470.904,2023-11-07T14:06:51Z
2023-11-07T12:07:27Z,42.805,6.029,13.3030,4.60103,2470.88,2023-11-07T14:09:54Z
2023-11-07T12:10:30Z,42.805,6.029,13.3029,4.60102,2470.857,2023-11-07T14:12:57Z
2023-11-07T12:13:33Z,42.805,6.029,13.3025,4.60102,2470.857,2023-11-07T14:16:00Z
2023-11-07T12:16:37Z,42.805,6.029,13.3028,4.60101,2470.88,2023-11-07T14:19:03Z
2023-11-07T12:19:40Z,42.805,6.029,13.3030,4.60101,2470.871,2023-11-07T14:22:06Z
2023-11-07T12:22:43Z,42.805,6.029,13.3034,4.60101,2470.857,2023-11-07T14:25:09Z
2023-11-07T12:25:46Z,42.805,6.029,13.3031,4.60102,2470.904,2023-11-07T14:28:12Z
2023-11-07T12:28:49Z,42.805,6.029,13.3029,4.60102,2470.88,2023-11-07T14:31:15Z
2023-11-07T12:31:52Z,42.805,6.029,13.3032,4.60102,2470.927,2023-11-07T14:34:18Z
2023-11-07T12:34:55Z,42.805,6.029,13.3030,4.60102,2470.904,2023-11-07T14:37:22Z
2023-11-07T12:37:58Z,42.805,6.029,13.3031,4.60102,2470.904,2023-11-07T14:40:25Z
2023-11-07T12:41:01Z,42.805,6.029,13.3031,4.60103,2470.917,2023-11-07T14:43:28Z
2023-11-07T12:44:04Z,42.805,6.029,13.3030,4.60102,2470.894,2023-11-07T14:46:31Z
2023-11-07T12:47:07Z,42.805,6.029,13.3026,4.60102,2470.894,2023-11-07T14:49:34Z
2023-11-07T12:50:10Z,42.805,6.029,13.3031,4.60102,2470.88,2023-11-07T14:52:37Z
2023-11-07T12:53:14Z,42.805,6.029,13.3029,4.60102,2470.904,2023-11-07T14:55:40Z
2023-11-07T12:56:17Z,42.805,6.029,13.3029,4.60101,2470.904,2023-11-07T14:58:43Z
2023-11-07T12:59:20Z,42.805,6.029,13.3029,4.60101,2470.904,2023-11-07T15:01:46Z
2023-11-07T13:02:23Z,42.805,6.029,13.3032,4.60102,2470.917,2023-11-07T15:04:49Z
2023-11-07T13:05:26Z,42.805,6.029,13.3029,4.60101,2470.894,2023-11-07T15:07:52Z
2023-11-07T13:08:29Z,42.805,6.029,13.3029,4.60099,2470.904,2023-11-07T15:10:55Z
2023-11-07T13:11:32Z,42.805,6.029,13.3030,4.60101,2470.904,2023-11-07T15:13:59Z
2023-11-07T13:14:35Z,42.805,6.029,13.3026,4.60099,2470.917,2023-11-07T15:17:02Z
2023-11-07T13:17:38Z,42.805,6.029,13.3027,4.60102,2470.927,2023-11-07T15:20:05Z
2023-11-07T13:20:41Z,42.805,6.029,13.3031,4.60101,2470.904,2023-11-07T15:23:08Z
2023-11-07T13:23:44Z,42.805,6.029,13.3028,4.60099,2470.904,2023-11-07T15:26:11Z
2023-11-07T13:26:47Z,42.805,6.029,13.3026,4.60099,2470.904,2023-11-07T15:29:14Z
2023-11-07T13:29:51Z,42.805,6.029,13.3028,4.60099,2470.88,2023-11-07T15:32:17Z
2023-11-07T13:32:54Z,42.805,6.029,13.3029,4.60099,2470.927,2023-11-07T15:35:20Z
2023-11-07T13:35:57Z,42.805,6.029,13.3026,4.60099,2470.927,2023-11-07T15:38:23Z
2023-11-07T13:39:00Z,42.805,6.029,13.3029,4.60099,2470.904,2023-11-07T15:41:26Z
2023-11-07T13:42:03Z,42.805,6.029,13.3028,4.60098,2470.927,2023-11-07T15:44:30Z
2023-11-07T13:45:06Z,42.805,6.029,13.3025,4.60099,2470.917,2023-11-07T15:47:33Z
2023-11-07T13:48:09Z,42.805,6.029,13.3026,4.60098,2470.927,2023-11-07T15:50:36Z
2023-11-07T13:51:12Z,42.805,6.029,13.3024,4.60099,2470.904,2023-11-07T15:53:39Z
2023-11-07T13:54:15Z,42.805,6.029,13.3026,4.60099,2470.917,2023-11-07T15:56:42Z
2023-11-07T13:57:18Z,42.805,6.029,13.3027,4.60099,2470.917,2023-11-07T15:59:45Z
2023-11-07T14:00:21Z,42.805,6.029,13.3026,4.60100,2470.964,2023-11-07T16:02:48Z
2023-11-07T14:03:25Z,42.805,6.029,13.3030,4.60099,2470.904,2023-11-07T16:05:51Z
2023-11-07T14:06:28Z,42.805,6.029,13.3027,4.60100,2470.927,2023-11-07T16:08:54Z
2023-11-07T14:09:31Z,42.805,6.029,13.3030,4.60099,2470.94,2023-11-07T16:11:57Z
2023-11-07T14:12:34Z,42.805,6.029,13.3029,4.60100,2470.94,2023-11-07T16:15:00Z
2023-11-07T14:15:37Z,42.805,6.029,13.3028,4.60100,2470.927,2023-11-07T16:18:03Z
2023-11-07T14:18:40Z,42.805,6.029,13.3026,4.60100,2470.927,2023-11-07T16:21:06Z
2023-11-07T14:21:43Z,42.805,6.029,13.3033,4.60100,2470.94,2023-11-07T16:24:10Z
2023-11-07T14:24:46Z,42.805,6.029,13.3030,4.60100,2470.94,2023-11-07T16:27:13Z
2023-11-07T14:27:49Z,42.805,6.029,13.3032,4.60102,2470.927,2023-11-07T16:30:16Z
2023-11-07T14:30:52Z,42.805,6.029,13.3026,4.60101,2470.927,2023-11-07T16:33:19Z
2023-11-07T14:33:55Z,42.805,6.029,13.3029,4.60102,2470.917,2023-11-07T16:36:22Z
2023-11-07T14:36:58Z,42.805,6.029,13.3033,4.60101,2470.917,2023-11-07T16:39:25Z
2023-11-07T14:40:02Z,42.805,6.029,13.3032,4.60104,2470.927,2023-11-07T16:42:28Z
2023-11-07T14:43:05Z,42.805,6.029,13.3030,4.60103,2470.95,2023-11-07T16:45:31Z
2023-11-07T14:46:08Z,42.805,6.029,13.3029,4.60102,2470.94,2023-11-07T16:48:34Z
2023-11-07T14:49:11Z,42.805,6.029,13.3034,4.60103,2470.964,2023-11-07T16:51:37Z
2023-11-07T14:52:14Z,42.805,6.029,13.3029,4.60103,2470.964,2023-11-07T16:54:40Z
2023-11-07T14:55:17Z,42.805,6.029,13.3032,4.60104,2470.917,2023-11-07T16:57:43Z
2023-11-07T14:58:20Z,42.805,6.029,13.3034,4.60103,2470.927,2023-11-07T17:00:47Z